Platteville, WI

9:35 AM CST on December 16, 2017 (GMT -0600)
Platteville Municipal

Weather History for KPVB - April, 2014

Change the Weather History Date:

Sunday, April 13, 2014

  Actual Average (KDBQ) Record (KDBQ)
Temperature  
Mean Temperature 50 °F -  
Max Temperature 57 °F 56 °F 83 °F (1887)
Min Temperature 42 °F 37 °F 20 °F (1957)
Degree Days  
Heating Degree Days 14    
Moisture  
Dew Point 49 °F    
Average Humidity 94    
Maximum Humidity 96    
Minimum Humidity 87    
Precipitation  
Precipitation 2.43 in - - ()
Sea Level Pressure  
Sea Level Pressure 29.64 in    
Wind  
Wind Speed 13 mph (NE)    
Max Wind Speed 32 mph    
Max Gust Speed 44 mph    
Visibility 6 miles    
Events      
Averages and records for this station are not official NWS values.
T = Trace of Precipitation, MM = Missing Value Source: NWS Daily Summary

Daily Weather History Graph

Daily Weather History Graph

Search for Another Location

Airport or City:

Trip Planner

Search our weather history database for the weather conditions in past years. The results will help you decide how hot, cold, wet, or windy it might be!

Date:

Astronomy

Apr. 13, 2014 Rise Set
Actual Time 6:23 AM CDT 7:41 PM CDT
Civil Twilight 5:54 AM CDT 8:10 PM CDT
Nautical Twilight 5:19 AM CDT 8:46 PM CDT
Astronomical Twilight 4:42 AM CDT 9:23 PM CDT
Moon 6:18 PM CDT (4/13) 5:24 AM CDT (4/13)
Length of Visible Light 14h 16m
Length of Day
13h 17m
Waxing Gibbous, 97% of the Moon is Illuminated
Apr 13
Waxing Gibbous
Apr 15
Full
Apr 22
Last Quarter
Apr 29
New
May 6
First Quarter

Hourly Weather History & Observations

Time (CDT) Temp. Windchill Dew Point Humidity Pressure Visibility Wind Dir Wind Speed Gust Speed Precip Events Conditions
12:15 AM 50.2 °F - 46.4 °F 87% 29.76 in 10.0 mi West 32.2 mph 43.7 mph N/A   Mostly Cloudy
12:55 AM 53.4 °F - 50.9 °F 91% 29.64 in 10.0 mi NE 15.0 mph 21.9 mph 0.19 in   Mostly Cloudy
1:15 AM 54.0 °F - 50.9 °F 89% 29.70 in 10.0 mi NNE 5.8 mph 21.9 mph 0.01 in   Scattered Clouds
1:35 AM 53.8 °F - 51.3 °F 91% 29.68 in 2.0 mi NE 11.5 mph - 0.17 in   Overcast
1:55 AM 53.1 °F - 51.1 °F 93% 29.72 in 5.0 mi Calm Calm - 0.21 in   Mostly Cloudy
2:15 AM 53.1 °F - 51.1 °F 93% 29.75 in 4.0 mi South 3.5 mph - 0.06 in   Overcast
2:35 AM 53.4 °F - 51.8 °F 94% 29.75 in 4.0 mi SSE 11.5 mph 18.4 mph 0.15 in   Overcast
2:55 AM 53.1 °F - 51.4 °F 94% 29.74 in 3.0 mi SSE 6.9 mph - 0.24 in   Overcast
3:15 AM 52.9 °F - 51.3 °F 94% 29.72 in 1.5 mi Calm Calm - 0.08 in   Overcast
3:55 AM 52.3 °F - 50.9 °F 95% 29.63 in 0.5 mi Calm Calm - 0.12 in   Unknown
4:15 AM 52.2 °F - 50.9 °F 95% 29.62 in 2.0 mi North 6.9 mph - N/A   Clear
4:35 AM 52.7 °F - 51.4 °F 95% 29.64 in 5.0 mi NNW 5.8 mph - N/A   Clear
5:15 AM 51.8 °F - 50.5 °F 95% 29.66 in 4.0 mi NNE 9.2 mph - N/A   Scattered Clouds
5:35 AM 51.8 °F - 50.5 °F 95% 29.65 in 3.0 mi NNE 11.5 mph - N/A   Mostly Cloudy
5:55 AM 52.0 °F - 50.9 °F 96% 29.67 in 7.0 mi NNW 5.8 mph - N/A   Mostly Cloudy
6:15 AM 51.8 °F - 50.7 °F 96% 29.73 in 5.0 mi SSW 9.2 mph - N/A   Overcast
6:35 AM 52.3 °F - 51.1 °F 95% 29.74 in 5.0 mi SSW 5.8 mph - N/A   Overcast
6:55 AM 52.2 °F - 50.9 °F 95% 29.74 in 5.0 mi Calm Calm - N/A   Mostly Cloudy
7:15 AM 52.7 °F - 51.3 °F 95% 29.73 in 5.0 mi SE 4.6 mph - N/A   Scattered Clouds
7:35 AM 53.1 °F - 51.8 °F 95% 29.73 in 7.0 mi Calm Calm - N/A   Scattered Clouds
7:55 AM 53.1 °F - 51.8 °F 95% 29.72 in 5.0 mi ENE 5.8 mph - N/A   Mostly Cloudy
8:15 AM 52.9 °F - 51.6 °F 95% 29.72 in 4.0 mi NE 4.6 mph - N/A   Mostly Cloudy
8:35 AM 53.8 °F - 52.3 °F 95% 29.71 in 7.0 mi NE 6.9 mph - N/A   Scattered Clouds
8:55 AM 54.3 °F - 52.7 °F 94% 29.68 in 7.0 mi NE 6.9 mph - N/A   Clear
9:15 AM 55.0 °F - 53.6 °F 95% 29.69 in 10.0 mi NE 8.1 mph - N/A   Clear
9:35 AM 56.3 °F - 54.3 °F 93% 29.74 in 10.0 mi ESE 4.6 mph - N/A   Scattered Clouds
9:55 AM 56.3 °F - 53.6 °F 91% 29.75 in 10.0 mi ESE 5.8 mph - N/A   Mostly Cloudy
10:15 AM 56.3 °F - 53.6 °F 91% 29.74 in 10.0 mi Calm Calm - N/A   Overcast
10:35 AM 56.5 °F - 53.8 °F 91% 29.74 in 10.0 mi NE 4.6 mph - N/A   Mostly Cloudy
10:55 AM 57.2 °F - 54.5 °F 91% 29.76 in 10.0 mi NE 3.5 mph - N/A   Mostly Cloudy
11:15 AM 55.0 °F - 52.7 °F 92% 29.76 in 5.0 mi North 9.2 mph - N/A   Overcast
11:35 AM 54.5 °F - 52.7 °F 94% 29.76 in 4.0 mi NNE 5.8 mph - N/A   Mostly Cloudy
11:55 AM 55.0 °F - 53.6 °F 95% 29.74 in 4.0 mi NE 4.6 mph - N/A   Mostly Cloudy
12:15 PM 54.9 °F - 53.1 °F 94% 29.71 in 7.0 mi NNE 13.8 mph 17.3 mph N/A   Overcast
12:35 PM 53.8 °F - 52.0 °F 94% 29.70 in 5.0 mi NE 9.2 mph - N/A   Overcast
12:55 PM 52.5 °F - 50.9 °F 94% 29.69 in 4.0 mi NE 15.0 mph 20.7 mph N/A   Overcast
1:15 PM 51.8 °F - 50.2 °F 94% 29.69 in 4.0 mi NE 11.5 mph 19.6 mph N/A   Overcast
1:35 PM 51.6 °F - 50.0 °F 94% 29.68 in 5.0 mi ENE 15.0 mph 18.4 mph N/A   Overcast
1:55 PM 51.3 °F - 49.8 °F 95% 29.68 in 2.5 mi ENE 15.0 mph - 0.04 in   Overcast
2:15 PM 51.3 °F - 50.0 °F 95% 29.69 in 4.0 mi East 10.4 mph - 0.04 in   Overcast
2:35 PM 51.3 °F - 50.0 °F 95% 29.68 in 4.0 mi ENE 10.4 mph - 0.07 in   Overcast
2:55 PM 51.3 °F - 50.0 °F 95% 29.66 in 4.0 mi ENE 11.5 mph - 0.13 in   Overcast
3:15 PM 51.1 °F - 49.6 °F 95% 29.65 in 4.0 mi ENE 11.5 mph 17.3 mph 0.06 in   Overcast
3:35 PM 50.9 °F - 49.5 °F 95% 29.64 in 5.0 mi ENE 12.7 mph 18.4 mph 0.10 in   Overcast
3:55 PM 50.9 °F - 49.5 °F 95% 29.59 in 3.0 mi NE 18.4 mph 23.0 mph 0.19 in   Overcast
4:15 PM 51.1 °F - 49.5 °F 94% 29.58 in 5.0 mi NE 18.4 mph 24.2 mph 0.06 in   Overcast
4:35 PM 50.9 °F - 49.3 °F 94% 29.57 in 3.0 mi NE 18.4 mph 25.3 mph 0.16 in   Overcast
4:55 PM 50.7 °F - 49.1 °F 94% 29.54 in 3.0 mi NE 19.6 mph 26.5 mph 0.24 in   Overcast
5:15 PM 50.4 °F - 48.7 °F 94% 29.55 in 5.0 mi NE 13.8 mph 23.0 mph 0.05 in   Overcast
5:35 PM 49.6 °F - 48.2 °F 95% 29.54 in 5.0 mi NNE 12.7 mph 18.4 mph 0.10 in   Overcast
5:55 PM 49.1 °F - 47.5 °F 94% 29.54 in 3.0 mi NNE 12.7 mph - 0.24 in   Overcast
6:15 PM 48.6 °F - 46.9 °F 94% 29.52 in 2.5 mi North 15.0 mph - 0.08 in   Overcast
6:35 PM 47.8 °F - 46.4 °F 95% 29.52 in 4.0 mi NNE 17.3 mph - 0.14 in   Overcast
6:55 PM 47.3 °F - 45.5 °F 93% 29.52 in 4.0 mi North 17.3 mph 24.2 mph 0.20 in   Overcast
7:15 PM 46.4 °F 38.7 °F 44.8 °F 94% 29.53 in 4.0 mi North 20.7 mph 27.6 mph 0.09 in   Overcast
7:35 PM 45.9 °F 38.3 °F 44.2 °F 94% 29.53 in 2.5 mi North 19.6 mph - 0.16 in   Overcast
7:55 PM 45.5 °F 37.3 °F 44.1 °F 95% 29.52 in 1.8 mi North 21.9 mph 28.8 mph 0.28 in   Overcast
8:15 PM 45.0 °F 36.4 °F 43.7 °F 95% 29.51 in 4.0 mi NNE 23.0 mph - 0.09 in   Overcast
8:35 PM 44.8 °F 35.2 °F 43.3 °F 95% 29.49 in 7.0 mi NNE 28.8 mph 33.4 mph 0.11 in   Overcast
8:55 PM 44.8 °F 35.5 °F 43.3 °F 95% 29.50 in 10.0 mi North 26.5 mph 32.2 mph 0.12 in   Overcast
9:15 PM 45.0 °F 36.4 °F 43.7 °F 95% 29.51 in 10.0 mi North 23.0 mph 33.4 mph N/A   Overcast
9:35 PM 45.0 °F 36.4 °F 43.7 °F 95% 29.52 in 7.0 mi North 23.0 mph 32.2 mph 0.03 in   Overcast
9:55 PM 45.1 °F 36.9 °F 43.7 °F 95% 29.52 in 5.0 mi North 21.9 mph 32.2 mph 0.07 in   Overcast
10:15 PM 45.1 °F 37.1 °F 43.7 °F 95% 29.51 in 2.0 mi NNE 20.7 mph 31.1 mph 0.09 in   Overcast
10:35 PM 45.1 °F 36.6 °F 43.7 °F 95% 29.50 in 7.0 mi North 23.0 mph 28.8 mph 0.14 in   Overcast
10:55 PM 45.1 °F 36.0 °F 43.9 °F 95% 29.49 in 7.0 mi North 26.5 mph 31.1 mph 0.16 in   Overcast
11:15 PM 45.1 °F 36.9 °F 43.9 °F 95% 29.50 in 10.0 mi North 21.9 mph 32.2 mph N/A   Overcast
11:35 PM 44.8 °F 36.2 °F 43.3 °F 95% 29.49 in 10.0 mi North 23.0 mph 31.1 mph N/A   Overcast
11:55 PM 42.8 °F 32.7 °F 41.4 °F 95% 29.47 in 10.0 mi North 27.6 mph 36.8 mph N/A   Overcast